Regional Weather Roundup
Issued by NWS

Home | Current Version | Previous Version | Graphics & Text | Print | Product List | Glossary On
Versions: 1 2 3 4 5 6 7 8 9 10 11 12 13 14 15 16 17 18 19 20 21 22 23 24 25 26 27 28 29 30 31 32 33 34 35 36 37 38 39 40 41 42 43 44 45 46 47 48 49 50
000
ASUS43 KBIS 010410
RWRND

NORTH DAKOTA REGIONAL WEATHER ROUNDUP
NATIONAL WEATHER SERVICE BISMARCK ND
1000 PM CST SAT FEB 28 2015

NOTE: "FAIR" INDICATES FEW OR NO CLOUDS BELOW 12,000 FEET WITH NO
SIGNIFICANT WEATHER AND/OR OBSTRUCTIONS TO VISIBILITY.


NDZ001>003-009>011-017-010500-
NORTHWEST NORTH DAKOTA

CITY           SKY/WX    TMP DP  RH WIND       PRES   REMARKS
WILLISTON      PTCLDY     2  -3  80 SW3       30.15S
MINOT          CLEAR      2  -4  76 SW10      30.13S WCI -14
MINOT AFB      CLEAR     -1  -5  83 W8        30.13S WCI -15
$$

NDZ018>021-031>035-040>046-010500-
SOUTHWEST NORTH DAKOTA

CITY           SKY/WX    TMP DP  RH WIND       PRES   REMARKS
BISMARCK       CLEAR     10   2  69 W3        30.21R
DICKINSON      CLEAR      5  -1  76 W8        30.11S WCI  -8
GARRISON         N/A     -3  -6  87 W5        30.14F WCI -13
HETTINGER ARPT PTCLDY     5   0  79 NW5       30.15R WCI  -4
$$

NDZ004>008-012>016-024-026-027-054-010500-
NORTHEAST NORTH DAKOTA

CITY           SKY/WX    TMP DP  RH WIND       PRES   REMARKS
GRAND FORKS    MOCLDY     7   0  73 W10       30.16S WCI  -8
GRND FRKS AFB  MOCLDY     5  -2  72 W10       30.16S WCI -10
DEVILS LAKE    CLEAR      5  -2  72 W15       30.13R WCI -13
$$

NDZ022-023-025-028>030-036>039-047>053-010500-
SOUTHEAST NORTH DAKOTA

CITY           SKY/WX    TMP DP  RH WIND       PRES   REMARKS
FARGO          PTCLDY    13   4  67 W15       30.21R WCI  -3
JAMESTOWN      CLEAR      4  -2  76 W8        30.17R WCI  -9
$$




USA.gov is the U.S. government's official web portal to all federal, state and local government web resources and services.